| time (UTC) | temp F | wind direction | speed MPH | gust MPH | rain 1hr in | rain 24hr in | rain mn in | humidity % | barometer mb |
| 20260507151832 | 61 | 360 | 5.0 | 13.0 | 0.00 | 0.02 | 0.01 | 49 | 1012.6 |
| 20260507151338 | 60 | 315 | 2.0 | 13.0 | 0.00 | 0.02 | 0.01 | 50 | 1012.6 |
| 20260507150823 | 61 | 19 | 6.0 | 13.0 | 0.00 | 0.02 | 0.01 | 47 | 1012.7 |
| 20260507150331 | 61 | 342 | 5.0 | 13.0 | 0.00 | 0.02 | 0.01 | 49 | 1012.8 |
| 20260507145835 | 60 | 340 | 6.0 | 15.0 | 0.00 | 0.02 | 0.01 | 52 | 1012.9 |
| 20260507145322 | 60 | 45 | 8.0 | 14.0 | 0.00 | 0.02 | 0.01 | 50 | 1013.1 |
| 20260507144826 | 60 | 61 | 2.0 | 11.0 | 0.00 | 0.05 | 0.01 | 54 | 1013.1 |
| 20260507144332 | 59 | 18 | 3.0 | 16.0 | 0.00 | 0.05 | 0.01 | 52 | 1013.2 |
| 20260507143821 | 58 | 328 | 6.0 | 16.0 | 0.00 | 0.05 | 0.01 | 51 | 1013.2 |
| 20260507143327 | 58 | 24 | 0.0 | 8.0 | 0.00 | 0.05 | 0.01 | 51 | 1013.3 |
| 20260507142832 | 58 | 322 | 0.0 | 8.0 | 0.00 | 0.05 | 0.01 | 55 | 1013.3 |
| 20260507142306 | 57 | 46 | 3.0 | 8.0 | 0.00 | 0.05 | 0.01 | 50 | 1013.5 |
| 20260507141317 | 57 | 355 | 0.0 | 10.0 | 0.00 | 0.05 | 0.01 | 52 | 1013.6 |
| 20260507140824 | 57 | 336 | 2.0 | 11.0 | 0.00 | 0.05 | 0.01 | 51 | 1013.7 |
| 20260507140331 | 56 | 26 | 0.0 | 11.0 | 0.00 | 0.05 | 0.01 | 54 | 1013.8 |
| 20260507135758 | 56 | 355 | 5.0 | 11.0 | 0.00 | 0.05 | 0.01 | 54 | 1013.8 |
| 20260507134830 | 56 | 41 | 2.0 | 11.0 | 0.00 | 0.10 | 0.01 | 53 | 1013.8 |
| 20260507134323 | 56 | 57 | 6.0 | 11.0 | 0.00 | 0.10 | 0.01 | 55 | 1013.9 |
| 20260507133828 | 55 | 350 | 2.0 | 11.0 | 0.00 | 0.10 | 0.01 | 58 | 1014.0 |
| 20260507133337 | 55 | 22 | 6.0 | 11.0 | 0.00 | 0.10 | 0.01 | 56 | 1013.9 |
| 20260507132822 | 55 | 16 | 0.0 | 11.0 | 0.01 | 0.10 | 0.01 | 57 | 1014.0 |
| 20260507132330 | 54 | 11 | 4.0 | 11.0 | 0.01 | 0.10 | 0.01 | 59 | 1014.1 |
| 20260507131835 | 54 | 15 | 4.0 | 9.0 | 0.01 | 0.10 | 0.01 | 57 | 1014.0 |
| 20260507131324 | 54 | 46 | 0.0 | 9.0 | 0.01 | 0.10 | 0.01 | 59 | 1014.0 |
| 20260507130829 | 54 | 29 | 2.0 | 9.0 | 0.01 | 0.10 | 0.01 | 58 | 1014.0 |
| 20260507130336 | 54 | 355 | 3.0 | 9.0 | 0.01 | 0.10 | 0.01 | 58 | 1014.2 |
| 20260507125827 | 53 | 330 | 0.0 | 12.0 | 0.01 | 0.10 | 0.01 | 60 | 1014.1 |
| 20260507125334 | 53 | 336 | 3.0 | 12.0 | 0.01 | 0.10 | 0.01 | 59 | 1014.1 |
| 20260507124820 | 53 | 338 | 1.0 | 8.0 | 0.01 | 0.17 | 0.01 | 60 | 1014.1 |
| 20260507124328 | 53 | 340 | 0.0 | 10.0 | 0.01 | 0.17 | 0.01 | 60 | 1014.0 |
| 20260507123836 | 53 | 355 | 0.0 | 10.0 | 0.01 | 0.17 | 0.01 | 60 | 1014.0 |
| 20260507123323 | 53 | 360 | 3.0 | 8.0 | 0.01 | 0.17 | 0.01 | 60 | 1013.9 |
| 20260507122829 | 53 | 360 | 0.0 | 6.0 | 0.00 | 0.16 | 0.00 | 61 | 1013.8 |
| 20260507122337 | 53 | 15 | 0.0 | 11.0 | 0.00 | 0.16 | 0.00 | 60 | 1013.9 |
| 20260507121822 | 53 | 22 | 4.0 | 11.0 | 0.00 | 0.16 | 0.00 | 60 | 1013.8 |
| 20260507121330 | 53 | 360 | 0.0 | 8.0 | 0.00 | 0.16 | 0.00 | 60 | 1013.8 |
| 20260507120819 | 53 | 21 | 2.0 | 9.0 | 0.00 | 0.16 | 0.00 | 60 | 1013.7 |
| 20260507120328 | 53 | 33 | 2.0 | 11.0 | 0.00 | 0.16 | 0.00 | 59 | 1013.7 |
| 20260507115833 | 52 | 28 | 2.0 | 11.0 | 0.00 | 0.16 | 0.00 | 58 | 1013.6 |
| 20260507115321 | 52 | 355 | 1.0 | 10.0 | 0.00 | 0.16 | 0.00 | 59 | 1013.7 |
| 20260507114827 | 52 | 9 | 4.0 | 12.0 | 0.00 | 0.21 | 0.00 | 60 | 1013.7 |
| 20260507114335 | 52 | 348 | 2.0 | 11.0 | 0.00 | 0.21 | 0.00 | 61 | 1013.6 |
| 20260507113820 | 52 | 345 | 0.0 | 9.0 | 0.00 | 0.21 | 0.00 | 60 | 1013.5 |
| 20260507113328 | 52 | 31 | 1.0 | 9.0 | 0.00 | 0.21 | 0.00 | 60 | 1013.5 |
| 20260507112834 | 52 | 15 | 2.0 | 10.0 | 0.00 | 0.21 | 0.00 | 60 | 1013.5 |
| 20260507112326 | 52 | 15 | 3.0 | 10.0 | 0.00 | 0.21 | 0.00 | 61 | 1013.6 |
| 20260507111752 | 52 | 355 | 1.0 | 4.0 | 0.00 | 0.21 | 0.00 | 62 | 1013.6 |
| 20260507110825 | 52 | 19 | 0.0 | 1.0 | 0.00 | 0.21 | 0.00 | 63 | 1013.5 |
| 20260507110333 | 52 | 5 | 0.0 | 0.0 | 0.00 | 0.21 | 0.00 | 65 | 1013.5 |
| 20260507105759 | 52 | 34 | 0.0 | 0.0 | 0.00 | 0.21 | 0.00 | 63 | 1013.5 |
| 20260507104831 | 52 | 34 | 0.0 | 0.0 | 0.00 | 0.22 | 0.00 | 62 | 1013.5 |
| 20260507104320 | 52 | 38 | 0.0 | 6.0 | 0.00 | 0.22 | 0.00 | 63 | 1013.2 |
| 20260507103825 | 52 | 34 | 3.0 | 6.0 | 0.00 | 0.22 | 0.00 | 62 | 1013.1 |
| 20260507103337 | 53 | 25 | 0.0 | 8.0 | 0.00 | 0.22 | 0.00 | 62 | 1013.1 |
| 20260507102823 | 53 | 10 | 3.0 | 8.0 | 0.00 | 0.22 | 0.00 | 62 | 1012.9 |
| 20260507102330 | 53 | 34 | 0.0 | 2.0 | 0.00 | 0.22 | 0.00 | 62 | 1013.0 |
| 20260507101817 | 53 | 44 | 0.0 | 4.0 | 0.00 | 0.22 | 0.00 | 62 | 1012.9 |
| 20260507101325 | 53 | 28 | 0.0 | 4.0 | 0.00 | 0.22 | 0.00 | 62 | 1012.9 |
| 20260507100831 | 53 | 16 | 1.0 | 3.0 | 0.00 | 0.22 | 0.00 | 63 | 1012.9 |
| 20260507100318 | 53 | 344 | 0.0 | 5.0 | 0.00 | 0.22 | 0.00 | 64 | 1012.8 |
| 20260507095825 | 53 | 343 | 1.0 | 8.0 | 0.00 | 0.22 | 0.00 | 64 | 1012.8 |
| 20260507095332 | 53 | 355 | 0.0 | 8.0 | 0.00 | 0.22 | 0.00 | 65 | 1012.7 |
| 20260507094822 | 53 | 334 | 2.0 | 8.0 | 0.00 | 0.22 | 0.00 | 66 | 1012.5 |
| 20260507094330 | 53 | 64 | 1.0 | 5.0 | 0.00 | 0.22 | 0.00 | 66 | 1012.4 |
| 20260507093818 | 53 | 338 | 3.0 | 5.0 | 0.00 | 0.22 | 0.00 | 66 | 1012.5 |
| 20260507093302 | 53 | 46 | 4.0 | 15.0 | 0.00 | 0.22 | 0.00 | 67 | 1012.4 |
| 20260507092318 | 54 | 17 | 6.0 | 15.0 | 0.00 | 0.22 | 0.00 | 67 | 1012.4 |
| 20260507091805 | 54 | 340 | 0.0 | 11.0 | 0.00 | 0.22 | 0.00 | 74 | 1012.5 |
| 20260507090817 | 54 | 355 | 1.0 | 8.0 | 0.00 | 0.22 | 0.00 | 75 | 1012.4 |
| 20260507090326 | 54 | 355 | 0.0 | 4.0 | 0.00 | 0.22 | 0.00 | 77 | 1012.5 |
| 20260507085836 | 54 | 14 | 0.0 | 4.0 | 0.00 | 0.22 | 0.00 | 78 | 1012.5 |
| 20260507085323 | 54 | 23 | 0.0 | 6.0 | 0.00 | 0.22 | 0.00 | 78 | 1012.5 |
| 20260507084829 | 54 | 44 | 0.0 | 9.0 | 0.00 | 0.22 | 0.00 | 78 | 1012.4 |
| 20260507084337 | 54 | 5 | 4.0 | 6.0 | 0.00 | 0.22 | 0.00 | 78 | 1012.5 |
| 20260507083804 | 54 | 30 | 0.0 | 4.0 | 0.00 | 0.22 | 0.00 | 77 | 1012.4 |
| 20260507082836 | 54 | 9 | 0.0 | 2.0 | 0.00 | 0.22 | 0.00 | 78 | 1012.5 |
| 20260507082325 | 54 | 17 | 0.0 | 5.0 | 0.00 | 0.22 | 0.00 | 78 | 1012.3 |
| 20260507081755 | 54 | 9 | 0.0 | 6.0 | 0.00 | 0.22 | 0.00 | 77 | 1012.2 |
| 20260507080828 | 54 | 28 | 1.0 | 6.0 | 0.00 | 0.22 | 0.00 | 77 | 1012.0 |
| 20260507080336 | 55 | 5 | 0.0 | 4.0 | 0.00 | 0.22 | 0.00 | 77 | 1012.0 |
| 20260507075822 | 55 | 9 | 0.0 | 4.0 | 0.00 | 0.22 | 0.00 | 77 | 1011.9 |
| 20260507075329 | 55 | 31 | 0.0 | 4.0 | 0.00 | 0.22 | 0.00 | 77 | 1011.8 |
| 20260507074835 | 55 | 28 | 0.0 | 6.0 | 0.00 | 0.22 | 0.00 | 77 | 1011.8 |
| 20260507074322 | 55 | 9 | 0.0 | 11.0 | 0.00 | 0.22 | 0.00 | 77 | 1011.8 |
| 20260507073827 | 55 | 336 | 2.0 | 11.0 | 0.00 | 0.22 | 0.00 | 77 | 1011.8 |
| 20260507073336 | 55 | 30 | 4.0 | 10.0 | 0.00 | 0.22 | 0.00 | 77 | 1011.9 |
| 20260507072806 | 55 | 5 | 0.0 | 11.0 | 0.00 | 0.22 | 0.00 | 77 | 1011.7 |
| 20260507071818 | 55 | 33 | 4.0 | 11.0 | 0.00 | 0.22 | 0.00 | 77 | 1011.8 |
| 20260507071327 | 55 | 348 | 2.0 | 13.0 | 0.00 | 0.22 | 0.00 | 76 | 1011.8 |
| 20260507070833 | 55 | 35 | 3.0 | 14.0 | 0.00 | 0.22 | 0.00 | 76 | 1011.8 |
| 20260507070320 | 55 | 5 | 5.0 | 14.0 | 0.00 | 0.22 | 0.00 | 76 | 1011.8 |
| 20260507065827 | 55 | 42 | 0.0 | 9.0 | 0.00 | 0.22 | 0.00 | 76 | 1011.8 |
| 20260507065253 | 55 | 355 | 0.0 | 10.0 | 0.00 | 0.22 | 0.00 | 76 | 1012.0 |
| 20260507064251 | 55 | 5 | 0.0 | 10.0 | 0.00 | 0.22 | 0.00 | 76 | 1012.2 |
| 20260507063303 | 55 | 10 | 0.0 | 6.0 | 0.00 | 0.22 | 0.00 | 77 | 1012.2 |
| 20260507062338 | 55 | 25 | 0.0 | 10.0 | 0.00 | 0.22 | 0.00 | 77 | 1012.2 |
| 20260507061805 | 56 | 360 | 0.0 | 9.0 | 0.00 | 0.22 | 0.00 | 77 | 1012.3 |
| 20260507060816 | 56 | 15 | 5.0 | 9.0 | 0.00 | 0.22 | 0.00 | 77 | 1012.2 |
| 20260507060325 | 56 | 38 | 0.0 | 4.0 | 0.00 | 0.22 | 0.00 | 77 | 1012.3 |
| 20260507055830 | 56 | 17 | 1.0 | 9.0 | 0.00 | 0.22 | 0.00 | 76 | 1012.3 |
| 20260507055319 | 56 | 360 | 2.0 | 9.0 | 0.00 | 0.22 | 0.00 | 76 | 1012.4 |
| 20260507054809 | 56 | 23 | 0.0 | 0.0 | 0.00 | 0.22 | 0.00 | 76 | 1012.1 |
| 20260507053802 | 56 | 9 | 0.0 | 10.0 | 0.00 | 0.22 | 0.00 | 76 | 1011.9 |
| 20260507052835 | 56 | 340 | 2.0 | 11.0 | 0.00 | 0.22 | 0.00 | 76 | 1011.9 |
| 20260507052323 | 56 | 15 | 0.0 | 8.0 | 0.00 | 0.22 | 0.00 | 76 | 1011.9 |
| 20260507051829 | 56 | 334 | 2.0 | 8.0 | 0.00 | 0.22 | 0.00 | 76 | 1012.1 |
| 20260507051337 | 56 | 35 | 2.0 | 6.0 | 0.00 | 0.22 | 0.00 | 76 | 1012.3 |
| 20260507050822 | 56 | 49 | 0.0 | 11.0 | 0.00 | 0.22 | 0.00 | 76 | 1012.1 |
| 20260507050331 | 56 | 81 | 4.0 | 11.0 | 0.00 | 0.22 | 0.00 | 76 | 1012.1 |
| 20260507045820 | 56 | 317 | 3.0 | 15.0 | 0.00 | 0.22 | 0.00 | 76 | 1012.1 |
| 20260507045328 | 56 | 44 | 4.0 | 15.0 | 0.00 | 0.22 | 0.00 | 77 | 1012.2 |
| 20260507044833 | 56 | 355 | 5.0 | 11.0 | 0.00 | 0.22 | 0.00 | 79 | 1012.2 |
| 20260507044322 | 56 | 30 | 4.0 | 9.0 | 0.00 | 0.22 | 0.00 | 80 | 1012.2 |
| 20260507043808 | 57 | 101 | 3.0 | 13.0 | 0.00 | 0.22 | 0.00 | 81 | 1011.8 |
| 20260507042821 | 57 | 52 | 3.0 | 14.0 | 0.00 | 0.22 | 0.00 | 81 | 1012.1 |
| 20260507042329 | 57 | 74 | 7.0 | 14.0 | 0.00 | 0.22 | 0.00 | 81 | 1012.0 |
| 20260507041835 | 57 | 26 | 8.0 | 16.0 | 0.00 | 0.22 | 0.00 | 81 | 1012.2 |
| 20260507041327 | 57 | 16 | 10.0 | 16.0 | 0.00 | 0.22 | 0.00 | 82 | 1012.1 |
| 20260507040833 | 57 | 9 | 3.0 | 13.0 | 0.00 | 0.22 | 0.00 | 81 | 1011.9 |
| 20260507040320 | 57 | 34 | 1.0 | 11.0 | 0.00 | 0.22 | 0.00 | 81 | 1011.7 |
| 20260507035827 | 58 | 5 | 5.0 | 12.0 | 0.00 | 0.22 | 0.00 | 81 | 1011.7 |
| 20260507035334 | 58 | 52 | 6.0 | 12.0 | 0.00 | 0.22 | 0.00 | 81 | 1011.8 |
| 20260507034820 | 58 | 20 | 4.0 | 12.0 | 0.00 | 0.22 | 0.22 | 81 | 1011.8 |
| 20260507034328 | 58 | 26 | 1.0 | 13.0 | 0.00 | 0.22 | 0.22 | 81 | 1011.7 |
| 20260507033836 | 58 | 24 | 6.0 | 15.0 | 0.00 | 0.22 | 0.22 | 81 | 1011.8 |
| 20260507033323 | 58 | 355 | 9.0 | 15.0 | 0.00 | 0.22 | 0.22 | 81 | 1011.7 |
| 20260507032829 | 58 | 36 | 7.0 | 13.0 | 0.00 | 0.22 | 0.22 | 81 | 1011.5 |
| 20260507032320 | 58 | 59 | 6.0 | 13.0 | 0.00 | 0.22 | 0.22 | 81 | 1011.5 |
| 20260507031827 | 59 | 5 | 8.0 | 11.0 | 0.00 | 0.22 | 0.22 | 81 | 1011.5 |
| 20260507031334 | 59 | 349 | 0.0 | 9.0 | 0.00 | 0.22 | 0.22 | 81 | 1011.6 |
| 20260507030820 | 59 | 41 | 1.0 | 10.0 | 0.00 | 0.22 | 0.22 | 81 | 1011.7 |
| 20260507030328 | 59 | 298 | 0.0 | 13.0 | 0.00 | 0.22 | 0.22 | 80 | 1011.8 |
| 20260507025834 | 59 | 319 | 4.0 | 13.0 | 0.00 | 0.22 | 0.22 | 80 | 1011.6 |
| 20260507025321 | 59 | 325 | 3.0 | 12.0 | 0.00 | 0.22 | 0.22 | 80 | 1011.5 |
| 20260507024828 | 59 | 24 | 4.0 | 12.0 | 0.00 | 0.22 | 0.22 | 80 | 1011.3 |
| 20260507024335 | 59 | 5 | 1.0 | 12.0 | 0.00 | 0.22 | 0.22 | 81 | 1011.4 |
| 20260507023825 | 60 | 19 | 0.0 | 1.0 | 0.00 | 0.22 | 0.22 | 82 | 1011.2 |
| 20260507023333 | 60 | 27 | 0.0 | 6.0 | 0.00 | 0.22 | 0.22 | 82 | 1011.2 |
| 20260507022819 | 60 | 36 | 0.0 | 6.0 | 0.00 | 0.22 | 0.22 | 81 | 1011.4 |
| 20260507022326 | 60 | 35 | 1.0 | 4.0 | 0.00 | 0.22 | 0.22 | 81 | 1011.1 |
| 20260507021753 | 60 | 42 | 0.0 | 6.0 | 0.00 | 0.22 | 0.22 | 81 | 1011.2 |
| 20260507020825 | 60 | 360 | 3.0 | 6.0 | 0.00 | 0.22 | 0.22 | 81 | 1011.1 |
| 20260507020334 | 60 | 38 | 0.0 | 1.0 | 0.00 | 0.22 | 0.22 | 81 | 1011.0 |
| 20260507015818 | 60 | 360 | 0.0 | 1.0 | 0.00 | 0.22 | 0.22 | 81 | 1011.2 |
| 20260507015327 | 60 | 34 | 0.0 | 9.0 | 0.00 | 0.22 | 0.22 | 81 | 1011.1 |
| 20260507014757 | 60 | 325 | 0.0 | 11.0 | 0.00 | 0.22 | 0.22 | 82 | 1011.3 |
| 20260507013830 | 60 | 319 | 0.0 | 11.0 | 0.00 | 0.22 | 0.22 | 82 | 1011.1 |
| 20260507013336 | 60 | 360 | 0.0 | 14.0 | 0.01 | 0.22 | 0.22 | 82 | 1010.8 |
| 20260507012820 | 60 | 326 | 3.0 | 14.0 | 0.01 | 0.22 | 0.22 | 83 | 1010.6 |
| 20260507012329 | 60 | 28 | 5.0 | 13.0 | 0.01 | 0.22 | 0.22 | 83 | 1010.8 |
| 20260507011754 | 61 | 5 | 8.0 | 14.0 | 0.01 | 0.22 | 0.22 | 83 | 1010.8 |
| 20260507010828 | 61 | 318 | 6.0 | 15.0 | 0.01 | 0.22 | 0.22 | 83 | 1010.8 |
| 20260507010319 | 61 | 360 | 4.0 | 17.0 | 0.01 | 0.22 | 0.22 | 83 | 1010.9 |
| 20260507005826 | 62 | 355 | 8.0 | 17.0 | 0.01 | 0.22 | 0.22 | 83 | 1011.0 |
| 20260507005333 | 62 | 305 | 8.0 | 15.0 | 0.01 | 0.22 | 0.22 | 83 | 1011.0 |
| 20260507004819 | 63 | 347 | 6.0 | 16.0 | 0.01 | 0.22 | 0.22 | 84 | 1011.0 |
| 20260507004327 | 63 | 331 | 7.0 | 16.0 | 0.01 | 0.22 | 0.22 | 83 | 1011.0 |
| 20260507003754 | 64 | 355 | 4.0 | 12.0 | 0.00 | 0.21 | 0.21 | 83 | 1010.9 |
| 20260507002826 | 64 | 31 | 5.0 | 13.0 | 0.00 | 0.21 | 0.21 | 82 | 1010.9 |
| 20260507002335 | 64 | 348 | 8.0 | 15.0 | 0.00 | 0.21 | 0.21 | 82 | 1010.7 |
| 20260507001819 | 64 | 5 | 4.0 | 15.0 | 0.00 | 0.21 | 0.21 | 82 | 1010.8 |
| 20260507001332 | 64 | 322 | 6.0 | 15.0 | 0.00 | 0.21 | 0.21 | 82 | 1010.6 |
| 20260507000817 | 64 | 346 | 2.0 | 12.0 | 0.00 | 0.21 | 0.21 | 83 | 1010.5 |
| 20260507000325 | 65 | 360 | 0.0 | 10.0 | 0.00 | 0.21 | 0.21 | 84 | 1010.3 |
| 20260506235832 | 65 | 325 | 3.0 | 10.0 | 0.00 | 0.21 | 0.21 | 83 | 1010.3 |
| 20260506235258 | 65 | 340 | 0.0 | 9.0 | 0.00 | 0.21 | 0.21 | 84 | 1010.0 |
| 20260506234333 | 65 | 342 | 0.0 | 12.0 | 0.00 | 0.21 | 0.21 | 84 | 1009.9 |
| 20260506233818 | 66 | 332 | 2.0 | 12.0 | 0.00 | 0.21 | 0.21 | 84 | 1010.0 |
| 20260506233326 | 66 | 344 | 1.0 | 5.0 | 0.00 | 0.21 | 0.21 | 84 | 1009.8 |
| 20260506232831 | 66 | 45 | 0.0 | 11.0 | 0.00 | 0.21 | 0.21 | 84 | 1009.4 |
| 20260506232324 | 66 | 5 | 3.0 | 12.0 | 0.00 | 0.21 | 0.21 | 84 | 1009.3 |
| 20260506231810 | 67 | 338 | 1.0 | 12.0 | 0.00 | 0.21 | 0.21 | 84 | 1009.4 |
| 20260506230823 | 67 | 11 | 4.0 | 8.0 | 0.00 | 0.21 | 0.21 | 85 | 1009.4 |
| 20260506230331 | 67 | 360 | 0.0 | 13.0 | 0.00 | 0.21 | 0.21 | 85 | 1009.1 |
| 20260506225758 | 68 | 344 | 1.0 | 8.0 | 0.00 | 0.21 | 0.21 | 85 | 1009.3 |
| 20260506224830 | 68 | 316 | 0.0 | 4.0 | 0.00 | 0.21 | 0.21 | 85 | 1009.1 |
| 20260506224319 | 68 | 220 | 0.0 | 4.0 | 0.00 | 0.21 | 0.21 | 85 | 1009.0 |
| 20260506223828 | 68 | 215 | 2.0 | 3.0 | 0.00 | 0.21 | 0.21 | 85 | 1009.0 |
| 20260506223337 | 68 | 220 | 0.0 | 3.0 | 0.00 | 0.21 | 0.21 | 85 | 1009.0 |
| 20260506222802 | 68 | 267 | 0.0 | 4.0 | 0.00 | 0.21 | 0.21 | 85 | 1008.9 |
| 20260506221835 | 68 | 215 | 1.0 | 4.0 | 0.00 | 0.21 | 0.21 | 86 | 1008.9 |
| 20260506221323 | 68 | 266 | 1.0 | 4.0 | 0.00 | 0.21 | 0.21 | 87 | 1008.9 |
| 20260506220810 | 68 | 219 | 0.0 | 2.0 | 0.00 | 0.21 | 0.21 | 87 | 1008.7 |
| 20260506215822 | 67 | 227 | 0.0 | 2.0 | 0.00 | 0.21 | 0.21 | 89 | 1008.7 |
| 20260506215331 | 67 | 218 | 0.0 | 0.0 | 0.00 | 0.21 | 0.21 | 89 | 1008.6 |
| 20260506214819 | 67 | 244 | 0.0 | 0.0 | 0.00 | 0.21 | 0.21 | 89 | 1008.8 |
| 20260506214329 | 67 | 252 | 0.0 | 0.0 | 0.00 | 0.21 | 0.21 | 88 | 1008.9 |
| 20260506213833 | 67 | 230 | 0.0 | 0.0 | 0.00 | 0.21 | 0.21 | 89 | 1008.8 |
| 20260506213322 | 67 | 218 | 0.0 | 0.0 | 0.00 | 0.21 | 0.21 | 89 | 1008.8 |
| 20260506212827 | 67 | 219 | 0.0 | 0.0 | 0.00 | 0.21 | 0.21 | 89 | 1008.7 |
| 20260506212336 | 67 | 220 | 0.0 | 0.0 | 0.00 | 0.21 | 0.21 | 89 | 1008.7 |
| 20260506211820 | 66 | 219 | 0.0 | 0.0 | 0.00 | 0.21 | 0.21 | 89 | 1008.6 |
| 20260506211329 | 66 | 219 | 0.0 | 0.0 | 0.00 | 0.21 | 0.21 | 89 | 1008.6 |
| 20260506210835 | 66 | 219 | 0.0 | 0.0 | 0.00 | 0.21 | 0.21 | 89 | 1008.5 |
| 20260506210306 | 66 | 219 | 0.0 | 0.0 | 0.00 | 0.21 | 0.21 | 88 | 1008.3 |
| 20260506205320 | 66 | 219 | 0.0 | 1.0 | 0.00 | 0.21 | 0.21 | 88 | 1008.3 |
| 20260506204826 | 66 | 219 | 0.0 | 1.0 | 0.00 | 0.21 | 0.21 | 88 | 1008.4 |
| 20260506204334 | 66 | 221 | 0.0 | 0.0 | 0.00 | 0.21 | 0.21 | 87 | 1008.3 |
| 20260506203801 | 66 | 221 | 0.0 | 0.0 | 0.00 | 0.21 | 0.21 | 87 | 1008.3 |
| 20260506202833 | 66 | 221 | 0.0 | 0.0 | 0.00 | 0.21 | 0.21 | 87 | 1008.2 |
| 20260506202321 | 66 | 221 | 0.0 | 0.0 | 0.00 | 0.21 | 0.21 | 86 | 1008.2 |
| 20260506201826 | 66 | 219 | 0.0 | 0.0 | 0.00 | 0.21 | 0.21 | 86 | 1008.4 |
| 20260506201319 | 67 | 201 | 0.0 | 0.0 | 0.00 | 0.21 | 0.21 | 85 | 1008.4 |
| 20260506200805 | 67 | 248 | 0.0 | 0.0 | 0.00 | 0.21 | 0.21 | 84 | 1008.4 |
| 20260506195817 | 67 | 225 | 0.0 | 5.0 | 0.00 | 0.21 | 0.21 | 83 | 1008.3 |
| 20260506195325 | 67 | 221 | 0.0 | 5.0 | 0.00 | 0.21 | 0.21 | 83 | 1008.4 |
| 20260506194831 | 67 | 215 | 1.0 | 5.0 | 0.00 | 0.21 | 0.21 | 83 | 1008.3 |
| 20260506194319 | 68 | 217 | 1.0 | 2.0 | 0.00 | 0.21 | 0.21 | 83 | 1008.4 |
| 20260506193825 | 68 | 217 | 0.0 | 2.0 | 0.00 | 0.21 | 0.21 | 82 | 1008.3 |
| 20260506193332 | 68 | 217 | 0.0 | 3.0 | 0.00 | 0.21 | 0.21 | 82 | 1008.4 |
| 20260506192822 | 68 | 216 | 1.0 | 7.0 | 0.00 | 0.21 | 0.21 | 82 | 1008.4 |
| 20260506192331 | 68 | 213 | 0.0 | 8.0 | 0.00 | 0.21 | 0.21 | 81 | 1008.4 |
| 20260506191836 | 68 | 223 | 3.0 | 8.0 | 0.00 | 0.21 | 0.21 | 82 | 1008.5 |
| 20260506191325 | 68 | 220 | 0.0 | 10.0 | 0.00 | 0.21 | 0.21 | 82 | 1008.5 |
| 20260506190830 | 68 | 220 | 0.0 | 10.0 | 0.00 | 0.21 | 0.21 | 81 | 1008.4 |
| 20260506190318 | 68 | 232 | 1.0 | 4.0 | 0.00 | 0.21 | 0.21 | 82 | 1008.5 |
| 20260506185823 | 68 | 232 | 1.0 | 5.0 | 0.00 | 0.21 | 0.21 | 82 | 1008.5 |
| 20260506185331 | 68 | 219 | 2.0 | 6.0 | 0.00 | 0.21 | 0.21 | 82 | 1008.4 |
| 20260506184836 | 68 | 209 | 2.0 | 6.0 | 0.00 | 0.21 | 0.21 | 83 | 1008.5 |
| 20260506184324 | 68 | 229 | 0.0 | 9.0 | 0.00 | 0.21 | 0.21 | 84 | 1008.4 |
| 20260506183835 | 68 | 213 | 4.0 | 9.0 | 0.00 | 0.21 | 0.21 | 84 | 1008.5 |
| 20260506183300 | 67 | 202 | 1.0 | 7.0 | 0.00 | 0.21 | 0.21 | 87 | 1008.7 |
| 20260506182335 | 66 | 257 | 3.0 | 7.0 | 0.00 | 0.21 | 0.21 | 87 | 1008.8 |
| 20260506181822 | 66 | 213 | 3.0 | 9.0 | 0.00 | 0.21 | 0.21 | 86 | 1008.7 |
| 20260506181307 | 65 | 229 | 3.0 | 9.0 | 0.00 | 0.21 | 0.21 | 86 | 1008.8 |
| 20260506180323 | 65 | 217 | 3.0 | 12.0 | 0.00 | 0.21 | 0.21 | 86 | 1008.8 |
| 20260506175829 | 65 | 204 | 4.0 | 14.0 | 0.00 | 0.21 | 0.21 | 86 | 1008.8 |
| 20260506175320 | 65 | 232 | 5.0 | 14.0 | 0.00 | 0.21 | 0.21 | 86 | 1008.9 |
| 20260506174828 | 65 | 215 | 0.0 | 16.0 | 0.00 | 0.21 | 0.21 | 86 | 1008.9 |
| 20260506174252 | 65 | 242 | 4.0 | 10.0 | 0.00 | 0.21 | 0.21 | 86 | 1008.9 |
| 20260506173328 | 65 | 227 | 5.0 | 11.0 | 0.00 | 0.21 | 0.21 | 86 | 1009.0 |
| 20260506172834 | 66 | 226 | 3.0 | 11.0 | 0.00 | 0.21 | 0.21 | 85 | 1009.0 |
| 20260506172321 | 66 | 232 | 4.0 | 16.0 | 0.00 | 0.21 | 0.21 | 86 | 1009.0 |
| 20260506171809 | 66 | 211 | 8.0 | 15.0 | 0.00 | 0.21 | 0.21 | 86 | 1008.9 |
| 20260506170806 | 66 | 225 | 8.0 | 15.0 | 0.00 | 0.21 | 0.21 | 87 | 1008.9 |
| 20260506170332 | 66 | 225 | 8.0 | 15.0 | 0.00 | 0.21 | 0.21 | 87 | 1008.9 |
| 20260506165818 | 66 | 200 | 7.0 | 21.0 | 0.00 | 0.21 | 0.21 | 86 | 1008.9 |
| 20260506165326 | 66 | 171 | 9.0 | 19.0 | 0.00 | 0.21 | 0.21 | 88 | 1008.9 |
| 20260506164753 | 66 | 198 | 1.0 | 22.0 | 0.00 | 0.21 | 0.21 | 89 | 1009.1 |
| 20260506163825 | 65 | 211 | 10.0 | 22.0 | 0.00 | 0.21 | 0.21 | 89 | 1008.9 |
| 20260506163334 | 65 | 193 | 5.0 | 18.0 | 0.00 | 0.21 | 0.21 | 90 | 1009.0 |
| 20260506162819 | 65 | 200 | 9.0 | 17.0 | 0.00 | 0.21 | 0.21 | 91 | 1008.8 |
| 20260506162328 | 65 | 195 | 9.0 | 16.0 | 0.00 | 0.21 | 0.21 | 93 | 1009.1 |
| 20260506161833 | 64 | 213 | 6.0 | 20.0 | 0.00 | 0.21 | 0.21 | 92 | 1009.0 |
| 20260506161325 | 64 | 216 | 4.0 | 15.0 | 0.00 | 0.21 | 0.21 | 93 | 1009.1 |
| 20260506160830 | 63 | 205 | 2.0 | 17.0 | 0.00 | 0.21 | 0.21 | 93 | 1009.1 |
| 20260506160319 | 63 | 207 | 7.0 | 16.0 | 0.00 | 0.21 | 0.21 | 93 | 1009.0 |
| 20260506155824 | 63 | 201 | 2.0 | 15.0 | 0.00 | 0.21 | 0.21 | 94 | 1009.0 |
| 20260506155333 | 62 | 199 | 5.0 | 15.0 | 0.00 | 0.21 | 0.21 | 94 | 1009.0 |
| 20260506154817 | 62 | 286 | 4.0 | 11.0 | 0.00 | 0.21 | 0.21 | 94 | 1009.2 |
| 20260506154326 | 62 | 215 | 5.0 | 11.0 | 0.00 | 0.21 | 0.21 | 94 | 1009.3 |
| 20260506153830 | 62 | 223 | 4.0 | 10.0 | 0.01 | 0.21 | 0.21 | 94 | 1009.2 |
| 20260506153337 | 61 | 190 | 2.0 | 11.0 | 0.01 | 0.21 | 0.21 | 94 | 1009.2 |
| 20260506152827 | 61 | 214 | 2.0 | 11.0 | 0.01 | 0.21 | 0.21 | 94 | 1009.0 |
| 20260506152334 | 61 | 229 | 1.0 | 14.0 | 0.01 | 0.21 | 0.21 | 94 | 1009.2 |